Regional Weather Roundup
Issued by NWS

Home | Current Version | Previous Version | Graphics & Text | Print | Product List | Glossary On
Versions: 1 2 3 4 5 6 7 8 9 10 11 12 13 14 15 16 17 18 19 20 21 22 23 24 25 26 27 28 29 30 31 32 33 34 35 36 37 38 39 40 41 42 43 44 45 46 47 48 49 50
551
ASUS45 KSLC 181910
RWRUT

UTAH REGIONAL WEATHER ROUNDUP
NATIONAL WEATHER SERVICE SALT LAKE CITY UT
100 PM MDT WED OCT 18 2017

UTZ001>011-023>025-182000-

NORTHERN UTAH

CITY           SKY/WX    TMP DP  RH WIND       PRES   REMARKS
BRIGHAM CITY   SUNNY     62  22  22 CALM      30.21F
DUGWAY         MOSUNNY   62  18  18 W3        30.21
HILL AFB       SUNNY     63  23  22 NW3       30.21F
LOGAN          SUNNY     60  24  25 MISG      30.21F
OGDEN          SUNNY     64  27  24 N6        30.21F
SALT LAKE CITY MOSUNNY   65  28  24 CALM      30.20F
TOOELE VALLEY  SUNNY     59  32  36 N3        30.22F
WENDOVER       SUNNY     54  19  25 SE6       30.22
WEST JORDAN    SUNNY     62  34  35 NW5       30.22S

$$

UTZ011>015-024>027-182000-

CENTRAL/NORTHEAST UTAH

CITY           SKY/WX    TMP DP  RH WIND       PRES   REMARKS
PROVO AIRPORT  SUNNY     58  30  34 W6        30.22F
MOAB/CANYONLAN SUNNY     68  11  11 W3        30.20F
DELTA          MOSUNNY   61  21  21 SW3       30.21F
PRICE          SUNNY     65  13  13 VRB3      30.25F
RICHFIELD      SUNNY     64  21  19 CALM      30.23F
ROOSEVELT      SUNNY     63  14  15 CALM      30.26F
VERNAL         SUNNY     63  18  17 E5        30.25F

$$

UTZ013>016-019>022-027-182000-

SOUTHERN UTAH

CITY           SKY/WX    TMP DP  RH WIND       PRES   REMARKS
BRYCE CANYON   MOSUNNY   64   9  11 CALM      30.32F
CEDAR CITY     CLOUDY    65  18  16 CALM      30.22F
MILFORD        PTSUNNY   68  14  12 N9        30.20F
ST GEORGE      CLEAR     67  24  19 S3        30.11F
HANKSVILLE     MOSUNNY   64  16  15 CALM      30.23F
KANAB          MOSUNNY   73  25  16 S3        30.21F
BLANDING         N/A     67  11  11 SE5       30.32F

$$

REGIONAL REPORTS     COLORADO/ARIZONA

CITY           SKY/WX    TMP DP  RH WIND       PRES   REMARKS
CRAIG, CO      SUNNY     66   8  10 N3        30.27F
GRAND JUNCTION SUNNY     65  14  14 VRB3      30.22F
RIFLE, CO      SUNNY     64  18  17 CALM      30.26F
MONTROSE, CO   CLOUDY    67  16  14 CALM      30.27F
CORTEZ, CO     CLOUDY    71  11  10 S6        30.25F
COLORADO CITY    N/A     75  28  17 CALM      30.20F
PAGE, AZ       PTSUNNY   69  22  16 N6        30.16F
GRAND CANYON   MOSUNNY   72  26  18 SW9       30.27F
KINGMAN, AZ    CLOUDY    82  24  12 VRB3      30.10S
FLAGSTAFF, AZ  SUNNY     71  27  19 S13G21    30.29F

$$

REGIONAL REPORTS    NEVADA/IDAHO/WYOMING

CITY           SKY/WX    TMP DP  RH WIND       PRES   REMARKS
LAS VEGAS, NV  PTSUNNY   76  21  12 E6        30.05S
ELY, NY        SUNNY     65  12  12 VRB5      30.25F
ELKO, NV       SUNNY     60  15  17 NE3       30.22F
POCATELLO, ID  SUNNY     66  26  22 W9        30.20F
BURLEY, ID     SUNNY     65  27  23 N3        30.16F
FORT BRIDGER,    N/A     65  10  11 W9G16     30.30F
EVANSTON, WY   SUNNY     63  10  12 W12       30.28F
ROCK SPRINGS,  SUNNY     60  12  15 SW10G20   30.27F
KEMMERER, WY   SUNNY     59  10  14 W13       30.30S

$$




USA.gov is the U.S. government's official web portal to all federal, state and local government web resources and services.